Flag for Brazil Weather past 2 weeks in Rio de Janeiro, Rio de Janeiro, Brazil

Now
82 °F

Sunny.


Feels Like: 83 °F
Forecast: 66 / 90 °F
Wind: 12 mph from South

Location: Rio De Janeiro Airport

Current Time: Aug 31, 2015 at 3:18:33 PM

Latest Report: Aug 31, 2015 at 3:00 PM


Visibility: 10 mi

Pressure: 29.92 "Hg

Humidity: 48%

Dew point: 61 °F

Location of Rio de JaneiroLocation

Historic Weather in Rio de Janeiro — Graph

°F

Rio de Janeiro temperature yesterday

Maximum temperature yesterday: 82 °F (at 12:00 PM)
Minimum temperature yesterday: 64 °F (at 4:00 AM)
Average temperature yesterday: 73 °F

Past Weeks' High & Low Weather Summary

 TemperatureHumidityPressure
High90 °F (Aug 31, 1:00 PM)100% (Aug 21, 1:00 AM)30.24 "Hg (Aug 21, 1:00 AM)
Low64 °F (Aug 21, 1:00 AM)36% (Aug 31, 1:00 PM)29.80 "Hg (Aug 19, 3:00 PM)
Average72 °F77%30.05 "Hg
* Reported Aug 16 2:00 PM — Aug 31 2:00 PM, Rio de Janeiro, Weather by CustomWeather, © 2015

Note: Actual official high and low records may vary slightly from our data, if they occured in-between our weather recording intervals... More about our weather records

Advertising

Rio de Janeiro weather history for previous 24 hours

 ConditionsComfort  
Time TempWeatherWind HumidityBarometerVisibility
2:00 PM
Mon, Aug 31
84 °FSunny.13 mph55%29.95 "Hg10 mi
1:00 PM90 °FSunny.5 mph36%29.98 "Hg10 mi
12:00 PM86 °FSunny.6 mph49%30.01 "Hg10 mi
11:00 AM84 °FSunny.7 mph51%30.04 "Hg10 mi
10:00 AM81 °FSunny.8 mph54%30.07 "Hg10 mi
9:00 AM77 °FClear.5 mph69%30.07 "Hg5 mi
8:00 AM73 °FFog.6 mph89%30.04 "Hg3 mi
7:00 AM70 °FSunny.5 mph100%30.04 "Hg10 mi
6:00 AM66 °FSunny.3 mph100%30.01 "Hg10 mi
5:00 AM66 °FClear.8 mph100%30.01 "Hg10 mi
4:00 AM68 °FClear.7 mph94%29.98 "Hg10 mi
3:00 AM70 °FClear.6 mph88%30.01 "Hg10 mi
2:00 AM68 °FClear.2 mph94%30.01 "Hg10 mi
1:00 AM72 °FClear.1 mph83%30.04 "Hg10 mi
12:00 AM72 °FClear.3 mph83%30.04 "Hg10 mi
11:00 PM
Sun, Aug 30
72 °FClear.1 mph83%30.04 "Hg10 mi
10:00 PM72 °FClear.No wind83%30.04 "Hg10 mi
9:00 PM70 °FClear.5 mph88%30.04 "Hg10 mi
8:00 PM72 °FClear.7 mph83%30.04 "Hg10 mi
7:00 PM79 °FClear.8 mph61%30.01 "Hg10 mi
6:00 PM79 °FClear.9 mph61%30.01 "Hg10 mi
5:00 PM81 °FClear.12 mph58%30.01 "Hg10 mi
4:00 PM81 °FSunny.14 mph62%30.01 "Hg10 mi
3:00 PM81 °FSunny.15 mph58%30.01 "Hg10 mi
Weather by CustomWeather, © 2015

See weather overviewHow to use our weather pages